M I D A S
Marine Information and Data Acquisition System
Tripno 1071 of the Zeeleeuw from 2006-04-18 08:40:58 to 2006-04-18 10:53:31
Back to CruiseResearch ActivitiesStationsMapUnderway DataData graphs

EquipmentUnitsComments
TimeDGPSUTC
LatitudeDGPSDM.mWGS84
LongitudeDGPSDM.mWGS84
SpeedMeteo Stationm/sRelative wind speed
DirectionMeteo StationdegRelative wind direction
TemperatureMeteo Stationdeg CelciusAir temperature
PressureMeteo StationPaAtmospheric pressure
HumidityMeteo Station%Relative humidity
Missing or incorrect values are displayed as -999
Metereological data collected by the RV Zeeleeuw from 2006-04-18 06:36:17 to 2006-04-18 11:06:56
                                                                                    Next 1000 lines
Time Latitude Longitude Speed Direction Temperature Pressure Humidity
2006-04-18 06:36:27 51°13.602 2°56.1 -999 124 8.5 101330 83
2006-04-18 06:36:31 51°13.602 2°56.1 -999 132 8.5 101330 83
2006-04-18 06:36:37 51°13.602 2°56.101 -999 116 8.5 101330 83
2006-04-18 06:36:41 51°13.602 2°56.101 -999 117 8.5 101340 83
2006-04-18 06:36:47 51°13.601 2°56.101 -999 139 8.5 101340 83
2006-04-18 06:36:51 51°13.601 2°56.101 -999 136 8.6 101330 83
2006-04-18 06:36:57 51°13.601 2°56.101 -999 136 8.6 101330 83
2006-04-18 06:37:02 51°13.601 2°56.1 -999 139 8.6 101330 83
2006-04-18 06:37:07 51°13.601 2°56.1 -999 147 8.6 101330 83
2006-04-18 06:37:11 51°13.601 2°56.1 -999 150 8.6 101330 83
2006-04-18 06:37:17 51°13.601 2°56.1 -999 139 8.6 101330 83
2006-04-18 06:37:22 51°13.601 2°56.1 -999 141 8.6 101330 82
2006-04-18 06:37:27 51°13.601 2°56.1 -999 110 8.6 101330 82
2006-04-18 06:37:32 51°13.6 2°56.1 -999 137 8.6 101330 82
2006-04-18 06:37:36 51°13.6 2°56.1 -999 127 8.6 101330 82
2006-04-18 06:37:42 51°13.6 2°56.099 -999 146 8.6 101340 82
2006-04-18 06:37:47 51°13.601 2°56.098 -999 153 8.6 101340 82
2006-04-18 06:37:51 51°13.601 2°56.097 -999 152 8.6 101330 82
2006-04-18 06:37:57 51°13.601 2°56.094 -999 152 8.6 101330 82
2006-04-18 06:38:02 51°13.601 2°56.092 -999 128 8.6 101340 82
2006-04-18 06:38:06 51°13.602 2°56.089 -999 127 8.6 101340 82
2006-04-18 06:38:12 51°13.602 2°56.084 -999 145 8.6 101330 82
2006-04-18 06:38:18 51°13.604 2°56.078 -999 152 8.6 101330 82
2006-04-18 06:38:22 51°13.605 2°56.074 -999 152 8.6 101340 83
2006-04-18 06:38:27 51°13.606 2°56.068 -999 152 8.6 101340 83
2006-04-18 06:38:32 51°13.608 2°56.061 -999 161 8.6 101340 83
2006-04-18 06:38:38 51°13.61 2°56.052 -999 147 8.6 101340 83
2006-04-18 06:38:42 51°13.611 2°56.046 -999 153 8.6 101340 83
2006-04-18 06:38:47 51°13.613 2°56.038 -999 158 8.6 101340 83
2006-04-18 06:38:52 51°13.615 2°56.03 -999 147 8.6 101340 82
2006-04-18 06:38:58 51°13.617 2°56.019 -999 148 8.6 101340 82
2006-04-18 06:39:03 51°13.619 2°56.01 -999 155 8.6 101340 82
2006-04-18 06:39:07 51°13.62 2°56.004 -999 140 8.6 101340 82
2006-04-18 06:39:12 51°13.622 2°55.995 -999 156 8.6 101340 82
2006-04-18 06:39:18 51°13.625 2°55.984 -999 162 8.6 101340 82
2006-04-18 06:39:22 51°13.627 2°55.977 -999 155 8.6 101340 82
2006-04-18 06:39:27 51°13.63 2°55.968 -999 173 8.6 101340 82
2006-04-18 06:39:32 51°13.632 2°55.958 -999 152 8.6 101340 82
2006-04-18 06:39:37 51°13.636 2°55.949 -999 163 8.6 101340 82
2006-04-18 06:39:43 51°13.64 2°55.938 -999 151 8.6 101340 82
2006-04-18 06:39:47 51°13.642 2°55.93 -999 161 8.6 101340 82
2006-04-18 06:39:52 51°13.646 2°55.921 -999 138 8.6 101330 82
2006-04-18 06:39:57 51°13.65 2°55.911 -999 144 8.6 101330 82
2006-04-18 06:40:02 51°13.654 2°55.902 -999 149 8.6 101340 82
2006-04-18 06:40:08 51°13.659 2°55.89 -999 153 8.6 101340 82
2006-04-18 06:40:12 51°13.662 2°55.882 -999 157 8.6 101340 82
2006-04-18 06:40:17 51°13.666 2°55.873 -999 131 8.6 101340 82
2006-04-18 06:40:23 51°13.671 2°55.861 -999 164 8.6 101340 82
2006-04-18 06:40:28 51°13.675 2°55.851 -999 156 8.6 101340 82
2006-04-18 06:40:32 51°13.678 2°55.844 -999 149 8.6 101340 82
2006-04-18 06:40:37 51°13.681 2°55.836 -999 159 8.6 101340 82
2006-04-18 06:40:43 51°13.686 2°55.826 -999 161 8.6 101340 82
2006-04-18 06:40:47 51°13.688 2°55.819 -999 157 8.6 101340 82
2006-04-18 06:40:52 51°13.692 2°55.811 -999 146 8.6 101340 82
2006-04-18 06:40:57 51°13.695 2°55.803 -999 169 8.6 101340 82
2006-04-18 06:41:03 51°13.698 2°55.794 -999 156 8.7 101340 82
2006-04-18 06:41:07 51°13.7 2°55.788 -999 162 8.7 101340 82
2006-04-18 06:41:12 51°13.703 2°55.78 -999 171 8.7 101340 82
2006-04-18 06:41:18 51°13.706 2°55.77 -999 158 8.7 101340 82
2006-04-18 06:41:22 51°13.708 2°55.764 -999 158 8.7 101340 82
2006-04-18 06:41:27 51°13.71 2°55.756 -999 165 8.7 101340 82
2006-04-18 06:41:32 51°13.712 2°55.749 -999 163 8.7 101340 82
2006-04-18 06:41:37 51°13.714 2°55.742 -999 166 8.7 101340 82
2006-04-18 06:41:43 51°13.716 2°55.735 -999 160 8.7 101340 82
2006-04-18 06:41:47 51°13.717 2°55.731 -999 164 8.7 101340 82
2006-04-18 06:41:52 51°13.718 2°55.726 -999 173 8.7 101340 82
2006-04-18 06:41:57 51°13.719 2°55.723 -999 155 8.7 101340 82
2006-04-18 06:42:02 51°13.719 2°55.722 -999 178 8.7 101340 82
2006-04-18 06:42:08 51°13.72 2°55.721 -999 225 8.7 101340 82
2006-04-18 06:42:12 51°13.721 2°55.721 -999 243 8.7 101340 82
2006-04-18 06:42:17 51°13.721 2°55.722 -999 256 8.7 101340 82
2006-04-18 06:42:22 51°13.723 2°55.724 -999 252 8.7 101340 82
2006-04-18 06:42:27 51°13.724 2°55.726 -999 242 8.7 101340 82
2006-04-18 06:42:32 51°13.726 2°55.729 -999 262 8.8 101340 82
2006-04-18 06:42:38 51°13.729 2°55.731 -999 267 8.8 101340 82
2006-04-18 06:42:42 51°13.73 2°55.733 -999 257 8.8 101340 82
2006-04-18 06:42:47 51°13.732 2°55.734 -999 256 8.8 101340 82
2006-04-18 06:42:52 51°13.733 2°55.734 -999 225 8.8 101340 82
2006-04-18 06:42:57 51°13.733 2°55.734 -999 205 8.8 101340 82
2006-04-18 06:43:02 51°13.733 2°55.733 -999 213 8.8 101340 82
2006-04-18 06:43:07 51°13.732 2°55.732 -999 177 8.8 101340 82
2006-04-18 06:43:12 51°13.731 2°55.73 -999 186 8.9 101340 82
2006-04-18 06:43:17 51°13.729 2°55.729 -999 209 8.9 101340 82
2006-04-18 06:43:23 51°13.726 2°55.727 -999 206 8.9 101340 82
2006-04-18 06:43:27 51°13.725 2°55.725 -999 197 8.9 101340 82
2006-04-18 06:43:32 51°13.723 2°55.724 -999 179 8.9 101340 82
2006-04-18 06:43:38 51°13.721 2°55.723 -999 217 8.9 101340 82
2006-04-18 06:43:43 51°13.721 2°55.722 -999 216 9 101340 82
2006-04-18 06:43:47 51°13.72 2°55.721 -999 200 9 101340 82
2006-04-18 06:43:52 51°13.72 2°55.721 -999 212 9 101340 82
2006-04-18 06:43:58 51°13.721 2°55.72 -999 215 9 101340 82
2006-04-18 06:44:03 51°13.722 2°55.72 -999 231 9 101340 82
2006-04-18 06:44:07 51°13.723 2°55.719 -999 231 9 101340 82
2006-04-18 06:44:12 51°13.725 2°55.718 -999 236 9 101340 81
2006-04-18 06:44:17 51°13.727 2°55.717 -999 247 9 101340 81
2006-04-18 06:44:22 51°13.73 2°55.715 -999 265 9 101340 81
2006-04-18 06:44:28 51°13.733 2°55.712 -999 250 9 101340 81
2006-04-18 06:44:32 51°13.736 2°55.71 -999 268 9 101340 81
2006-04-18 06:44:37 51°13.74 2°55.707 -999 286 9 101340 81
2006-04-18 06:44:43 51°13.744 2°55.703 -999 297 9 101340 80
2006-04-18 06:44:47 51°13.747 2°55.701 -999 309 9 101340 80
2006-04-18 06:44:52 51°13.752 2°55.697 -999 305 9 101340 80
2006-04-18 06:44:57 51°13.756 2°55.693 -999 316 9 101340 80
2006-04-18 06:45:02 51°13.761 2°55.689 -999 344 9.1 101340 80
2006-04-18 06:45:06 51°13.765 2°55.685 -999 331 9.1 101340 80
2006-04-18 06:45:12 51°13.771 2°55.68 -999 332 9.1 101340 80
2006-04-18 06:45:17 51°13.776 2°55.675 -999 313 9.1 101340 80
2006-04-18 06:45:22 51°13.781 2°55.67 -999 325 9.1 101340 80
2006-04-18 06:45:27 51°13.787 2°55.665 -999 308 9.1 101340 80
2006-04-18 06:45:32 51°13.793 2°55.66 -999 41 9.1 101340 80
2006-04-18 06:45:37 51°13.799 2°55.655 -999 234 9.1 101340 80
2006-04-18 06:45:42 51°13.805 2°55.65 -999 300 9.1 101340 80
2006-04-18 06:45:47 51°13.812 2°55.645 -999 299 9.1 101340 80
2006-04-18 06:45:52 51°13.818 2°55.64 -999 276 9.1 101340 80
2006-04-18 06:45:57 51°13.825 2°55.635 -999 39 9.1 101340 80
2006-04-18 06:46:02 51°13.831 2°55.63 -999 6 9.1 101340 80
2006-04-18 06:46:07 51°13.838 2°55.625 -999 359 9.1 101340 80
2006-04-18 06:46:13 51°13.846 2°55.619 -999 356 9.1 101340 80
2006-04-18 06:46:18 51°13.853 2°55.613 -999 32 9.1 101340 80
2006-04-18 06:46:23 51°13.86 2°55.608 -999 351 9.1 101340 80
2006-04-18 06:46:27 51°13.866 2°55.604 -999 330 9.1 101340 80
2006-04-18 06:46:32 51°13.873 2°55.599 -999 337 9.1 101340 80
2006-04-18 06:46:37 51°13.88 2°55.593 -999 318 9.1 101340 80
2006-04-18 06:46:42 51°13.887 2°55.588 -999 303 9.1 101330 80
2006-04-18 06:46:47 51°13.893 2°55.583 -999 317 9.1 101330 80
2006-04-18 06:46:52 51°13.9 2°55.577 -999 359 9.1 101330 80
2006-04-18 06:46:57 51°13.906 2°55.571 -999 318 9.1 101330 80
2006-04-18 06:47:02 51°13.912 2°55.566 -999 298 9.1 101330 80
2006-04-18 06:47:07 51°13.917 2°55.56 -999 349 9.1 101330 80
2006-04-18 06:47:12 51°13.923 2°55.554 -999 350 9.1 101340 80
2006-04-18 06:47:17 51°13.928 2°55.549 -999 315 9.1 101340 80
2006-04-18 06:47:22 51°13.933 2°55.543 -999 308 9.2 101340 79
2006-04-18 06:47:27 51°13.938 2°55.538 -999 302 9.2 101340 79
2006-04-18 06:47:31 51°13.942 2°55.534 -999 295 9.2 101340 79
2006-04-18 06:47:37 51°13.947 2°55.527 -999 299 9.2 101340 79
2006-04-18 06:47:42 51°13.952 2°55.522 -999 273 9.2 101340 79
2006-04-18 06:47:47 51°13.956 2°55.517 -999 228 9.2 101340 79
2006-04-18 06:47:51 51°13.96 2°55.512 -999 334 9.2 101340 79
2006-04-18 06:47:57 51°13.965 2°55.506 -999 316 9.2 101340 79
2006-04-18 06:48:02 51°13.969 2°55.501 -999 326 9.2 101340 79
2006-04-18 06:48:07 51°13.973 2°55.496 -999 300 9.2 101340 79
2006-04-18 06:48:12 51°13.976 2°55.491 -999 295 9.2 101350 79
2006-04-18 06:48:17 51°13.98 2°55.486 -999 274 9.2 101350 79
2006-04-18 06:48:22 51°13.983 2°55.482 -999 300 9.2 101340 79
2006-04-18 06:48:27 51°13.985 2°55.478 -999 321 9.2 101340 79
2006-04-18 06:48:32 51°13.988 2°55.474 -999 314 9.2 101340 79
2006-04-18 06:48:37 51°13.99 2°55.471 -999 293 9.2 101340 79
2006-04-18 06:48:42 51°13.992 2°55.469 -999 349 9.2 101350 79
2006-04-18 06:48:47 51°13.993 2°55.466 -999 317 9.2 101350 79
2006-04-18 06:48:51 51°13.995 2°55.465 -999 246 9.2 101340 79
2006-04-18 06:48:57 51°13.996 2°55.462 -999 215 9.2 101340 79
2006-04-18 06:49:02 51°13.998 2°55.46 -999 325 9.2 101340 79
2006-04-18 06:49:07 51°13.999 2°55.459 -999 279 9.2 101340 79
2006-04-18 06:49:12 51°14 2°55.458 -999 288 9.2 101340 79
2006-04-18 06:49:17 51°14 2°55.458 -999 349 9.2 101340 79
2006-04-18 06:49:22 51°14.001 2°55.458 -999 352 9.2 101330 79
2006-04-18 06:49:27 51°14.001 2°55.457 -999 302 9.2 101330 79
2006-04-18 06:49:32 51°14.002 2°55.457 -999 211 9.3 101340 79
2006-04-18 06:49:37 51°14.002 2°55.456 -999 328 9.3 101340 79
2006-04-18 06:49:42 51°14.003 2°55.456 -999 18 9.3 101340 79
2006-04-18 06:49:47 51°14.003 2°55.456 -999 230 9.3 101340 79
2006-04-18 06:49:52 51°14.004 2°55.455 -999 332 9.3 101340 79
2006-04-18 06:49:58 51°14.004 2°55.455 -999 235 9.3 101340 79
2006-04-18 06:50:02 51°14.005 2°55.455 -999 300 9.3 101340 79
2006-04-18 06:50:07 51°14.005 2°55.455 -999 284 9.3 101340 79
2006-04-18 06:50:11 51°14.005 2°55.455 -999 305 9.3 101340 79
2006-04-18 06:50:17 51°14.005 2°55.455 -999 306 9.3 101340 79
2006-04-18 06:50:22 51°14.005 2°55.455 -999 309 9.3 101340 79
2006-04-18 06:50:27 51°14.005 2°55.455 -999 299 9.3 101340 79
2006-04-18 06:50:32 51°14.005 2°55.455 -999 317 9.4 101340 79
2006-04-18 06:50:37 51°14.005 2°55.455 -999 282 9.4 101340 79
2006-04-18 06:50:42 51°14.005 2°55.454 -999 200 9.4 101340 79
2006-04-18 06:50:47 51°14.005 2°55.454 -999 251 9.4 101340 79
2006-04-18 06:50:52 51°14.005 2°55.454 -999 276 9.4 101330 79
2006-04-18 06:50:57 51°14.005 2°55.454 -999 245 9.4 101330 79
2006-04-18 06:51:02 51°14.005 2°55.453 -999 52 9.4 101340 79
2006-04-18 06:51:08 51°14.004 2°55.453 -999 250 9.4 101340 79
2006-04-18 06:51:13 51°14.004 2°55.452 -999 223 9.4 101330 79
2006-04-18 06:51:17 51°14.004 2°55.452 -999 253 9.4 101330 79
2006-04-18 06:51:22 51°14.004 2°55.452 -999 299 9.4 101330 79
2006-04-18 06:51:27 51°14.004 2°55.452 -999 228 9.4 101330 79
2006-04-18 06:51:32 51°14.004 2°55.451 -999 298 9.4 101330 78
2006-04-18 06:51:37 51°14.004 2°55.451 -999 304 9.4 101330 78
2006-04-18 06:51:42 51°14.004 2°55.451 -999 277 9.5 101340 78
2006-04-18 06:51:47 51°14.004 2°55.451 -999 300 9.5 101340 78
2006-04-18 06:51:52 51°14.004 2°55.451 -999 301 9.5 101340 78
2006-04-18 06:51:57 51°14.004 2°55.451 -999 289 9.5 101340 78
2006-04-18 06:52:02 51°14.004 2°55.451 -999 288 9.5 101340 78
2006-04-18 06:52:07 51°14.004 2°55.451 -999 273 9.5 101340 78
2006-04-18 06:52:12 51°14.004 2°55.451 -999 277 9.5 101340 78
2006-04-18 06:52:17 51°14.004 2°55.452 -999 286 9.5 101340 78
2006-04-18 06:52:22 51°14.004 2°55.451 -999 301 9.5 101340 78
2006-04-18 06:52:27 51°14.004 2°55.451 -999 248 9.5 101340 78
2006-04-18 06:52:32 51°14.004 2°55.451 -999 244 9.5 101340 78
2006-04-18 06:52:37 51°14.004 2°55.451 -999 206 9.5 101340 78
2006-04-18 06:52:42 51°14.004 2°55.451 -999 230 9.5 101340 78
2006-04-18 06:52:47 51°14.004 2°55.451 -999 249 9.5 101340 78
2006-04-18 06:52:52 51°14.004 2°55.451 -999 220 9.6 101340 78
2006-04-18 06:52:57 51°14.004 2°55.451 -999 253 9.6 101340 78
2006-04-18 06:53:02 51°14.004 2°55.451 -999 174 9.6 101340 78
2006-04-18 06:53:07 51°14.004 2°55.451 -999 228 9.6 101340 78
2006-04-18 06:53:11 51°14.004 2°55.451 -999 342 9.6 101340 78
2006-04-18 06:53:16 51°14.004 2°55.451 -999 298 9.6 101340 78
2006-04-18 06:53:22 51°14.004 2°55.451 -999 300 9.6 101340 78
2006-04-18 06:53:27 51°14.004 2°55.451 -999 249 9.6 101340 78
2006-04-18 06:53:32 51°14.004 2°55.451 -999 200 9.6 101340 78
2006-04-18 06:53:37 51°14.004 2°55.45 -999 290 9.6 101340 78
2006-04-18 06:53:42 51°14.004 2°55.45 -999 258 9.6 101340 78
2006-04-18 06:53:47 51°14.004 2°55.45 -999 230 9.6 101340 78
2006-04-18 06:53:52 51°14.004 2°55.45 -999 294 9.6 101340 78
2006-04-18 06:53:57 51°14.003 2°55.45 -999 281 9.6 101340 78
2006-04-18 06:54:02 51°14.004 2°55.45 -999 271 9.6 101340 78
2006-04-18 06:54:07 51°14.004 2°55.45 -999 299 9.6 101340 78
2006-04-18 06:54:12 51°14.004 2°55.45 -999 291 9.6 101330 78
2006-04-18 06:54:17 51°14.004 2°55.45 -999 269 9.6 101330 78
2006-04-18 06:54:21 51°14.004 2°55.451 -999 301 9.6 101340 78
2006-04-18 06:54:27 51°14.004 2°55.451 -999 278 9.6 101340 78
2006-04-18 06:54:31 51°14.004 2°55.451 -999 238 9.6 101340 78
2006-04-18 06:54:37 51°14.004 2°55.451 -999 290 9.6 101340 78
2006-04-18 06:54:42 51°14.004 2°55.451 -999 297 9.6 101340 78
2006-04-18 06:54:47 51°14.004 2°55.451 -999 326 9.6 101340 78
2006-04-18 06:54:52 51°14.004 2°55.45 -999 262 9.6 101340 78
2006-04-18 06:54:57 51°14.004 2°55.45 -999 318 9.6 101340 78
2006-04-18 06:55:02 51°14.004 2°55.45 -999 305 9.6 101340 78
2006-04-18 06:55:07 51°14.004 2°55.45 -999 235 9.6 101340 78
2006-04-18 06:55:11 51°14.004 2°55.45 -999 266 9.7 101340 77
2006-04-18 06:55:17 51°14.004 2°55.45 -999 245 9.7 101340 77
2006-04-18 06:55:21 51°14.004 2°55.45 -999 238 9.7 101340 77
2006-04-18 06:55:27 51°14.004 2°55.45 -999 255 9.7 101340 77
2006-04-18 06:55:31 51°14.004 2°55.45 -999 257 9.7 101340 77
2006-04-18 06:55:37 51°14.004 2°55.45 -999 288 9.7 101340 77
2006-04-18 06:55:42 51°14.004 2°55.45 -999 308 9.7 101340 77
2006-04-18 06:55:47 51°14.004 2°55.45 -999 187 9.7 101340 77
2006-04-18 06:55:51 51°14.004 2°55.45 -999 257 9.7 101340 77
2006-04-18 06:55:57 51°14.004 2°55.45 -999 272 9.7 101340 77
2006-04-18 06:56:02 51°14.004 2°55.45 -999 275 9.7 101340 77
2006-04-18 06:56:07 51°14.004 2°55.45 -999 270 9.7 101340 77
2006-04-18 06:56:11 51°14.004 2°55.45 -999 271 9.7 101340 77
2006-04-18 06:56:17 51°14.004 2°55.45 -999 227 9.7 101340 77
2006-04-18 06:56:22 51°14.004 2°55.45 -999 182 9.7 101340 77
2006-04-18 06:56:27 51°14.004 2°55.45 -999 296 9.7 101340 77
2006-04-18 06:56:32 51°14.004 2°55.45 -999 273 9.7 101340 77
2006-04-18 06:56:37 51°14.003 2°55.45 -999 304 9.7 101340 77
2006-04-18 06:56:42 51°14.003 2°55.45 -999 277 9.7 101340 77
2006-04-18 06:56:47 51°14.004 2°55.45 -999 326 9.7 101340 77
2006-04-18 06:56:52 51°14.004 2°55.451 -999 279 9.7 101340 77
2006-04-18 06:56:57 51°14.004 2°55.451 -999 252 9.7 101340 77
2006-04-18 06:57:02 51°14.004 2°55.451 -999 247 9.7 101340 77
2006-04-18 06:57:07 51°14.004 2°55.451 -999 279 9.7 101340 77
2006-04-18 06:57:12 51°14.004 2°55.451 -999 296 9.7 101340 77
2006-04-18 06:57:17 51°14.004 2°55.451 -999 280 9.7 101340 77
2006-04-18 06:57:22 51°14.004 2°55.451 -999 268 9.7 101340 77
2006-04-18 06:57:27 51°14.004 2°55.451 -999 231 9.7 101340 77
2006-04-18 06:57:32 51°14.004 2°55.451 -999 255 9.7 101340 77
2006-04-18 06:57:36 51°14.004 2°55.451 -999 272 9.8 101340 77
2006-04-18 06:57:42 51°14.005 2°55.451 -999 265 9.7 101340 77
2006-04-18 06:57:46 51°14.005 2°55.451 -999 297 9.7 101340 77
2006-04-18 06:57:52 51°14.004 2°55.451 -999 296 9.7 101340 77
2006-04-18 06:57:57 51°14.004 2°55.451 -999 277 9.8 101340 77
2006-04-18 06:58:02 51°14.004 2°55.451 -999 253 9.8 101340 77
2006-04-18 06:58:07 51°14.004 2°55.451 -999 190 9.8 101340 77
2006-04-18 06:58:12 51°14.004 2°55.451 -999 149 9.8 101340 77
2006-04-18 06:58:17 51°14.004 2°55.451 -999 60 9.8 101340 77
2006-04-18 06:58:22 51°14.004 2°55.451 -999 280 9.8 101340 77
2006-04-18 06:58:27 51°14.004 2°55.451 -999 257 9.8 101340 77
2006-04-18 06:58:32 51°14.004 2°55.451 -999 253 9.8 101340 77
2006-04-18 06:58:37 51°14.004 2°55.451 -999 261 9.8 101340 77
2006-04-18 06:58:42 51°14.004 2°55.451 -999 293 9.8 101340 77
2006-04-18 06:58:47 51°14.004 2°55.451 -999 259 9.8 101340 77
2006-04-18 06:58:52 51°14.004 2°55.451 -999 285 9.8 101340 77
2006-04-18 06:58:56 51°14.004 2°55.451 -999 326 9.8 101340 77
2006-04-18 06:59:02 51°14.004 2°55.451 -999 254 9.8 101340 77
2006-04-18 06:59:07 51°14.004 2°55.451 -999 292 9.8 101340 77
2006-04-18 06:59:12 51°14.004 2°55.451 -999 290 9.8 101340 77
2006-04-18 06:59:17 51°14.004 2°55.451 -999 276 9.8 101340 77
2006-04-18 06:59:22 51°14.004 2°55.451 -999 271 9.8 101340 77
2006-04-18 06:59:27 51°14.004 2°55.451 -999 144 9.8 101340 77
2006-04-18 06:59:32 51°14.004 2°55.451 -999 127 9.8 101340 77
2006-04-18 06:59:37 51°14.004 2°55.451 -999 166 9.8 101340 77
2006-04-18 06:59:42 51°14.004 2°55.451 -999 271 9.8 101340 77
2006-04-18 06:59:47 51°14.004 2°55.451 -999 290 9.8 101340 77
2006-04-18 06:59:52 51°14.004 2°55.451 -999 258 9.8 101340 77
2006-04-18 06:59:57 51°14.004 2°55.451 -999 268 9.8 101340 77
2006-04-18 07:00:02 51°14.004 2°55.45 -999 234 9.8 101340 77
2006-04-18 07:00:07 51°14.004 2°55.451 -999 261 9.8 101340 77
2006-04-18 07:00:11 51°14.004 2°55.45 -999 243 9.8 101340 77
2006-04-18 07:00:16 51°14.004 2°55.45 -999 275 9.8 101340 77
2006-04-18 07:00:22 51°14.004 2°55.45 -999 186 9.8 101340 77
2006-04-18 07:00:27 51°14.004 2°55.45 -999 289 9.8 101340 77
2006-04-18 07:00:32 51°14.004 2°55.45 -999 293 9.8 101350 77
2006-04-18 07:00:36 51°14.004 2°55.45 -999 255 9.8 101350 77
2006-04-18 07:00:42 51°14.004 2°55.45 -999 194 9.8 101340 77
2006-04-18 07:00:47 51°14.004 2°55.45 -999 312 9.8 101340 77
2006-04-18 07:00:52 51°14.004 2°55.45 -999 302 9.8 101340 77
2006-04-18 07:00:57 51°14.004 2°55.45 -999 273 9.8 101340 77
2006-04-18 07:01:02 51°14.004 2°55.45 -999 254 9.8 101340 77
2006-04-18 07:01:07 51°14.004 2°55.45 -999 306 9.8 101340 77
2006-04-18 07:01:12 51°14.004 2°55.45 -999 270 9.8 101340 77
2006-04-18 07:01:17 51°14.004 2°55.45 -999 271 9.8 101340 77
2006-04-18 07:01:22 51°14.004 2°55.45 -999 286 9.8 101340 77
2006-04-18 07:01:26 51°14.004 2°55.45 -999 280 9.8 101340 77
2006-04-18 07:01:32 51°14.004 2°55.45 -999 232 9.9 101340 77
2006-04-18 07:01:37 51°14.004 2°55.451 -999 242 9.9 101340 77
2006-04-18 07:01:42 51°14.004 2°55.451 -999 275 9.9 101340 77
2006-04-18 07:01:47 51°14.005 2°55.451 -999 245 9.9 101340 77
2006-04-18 07:01:51 51°14.005 2°55.451 -999 259 9.9 101340 77
2006-04-18 07:01:57 51°14.005 2°55.451 -999 286 9.9 101340 77
2006-04-18 07:02:02 51°14.004 2°55.451 -999 280 9.9 101340 77
2006-04-18 07:02:07 51°14.004 2°55.451 -999 291 9.9 101340 77
2006-04-18 07:02:11 51°14.004 2°55.451 -999 282 9.9 101340 77
2006-04-18 07:02:16 51°14.005 2°55.451 -999 275 9.9 101340 77
2006-04-18 07:02:22 51°14.005 2°55.451 -999 37 9.9 101340 77
2006-04-18 07:02:27 51°14.005 2°55.451 -999 285 9.9 101340 77
2006-04-18 07:02:32 51°14.004 2°55.45 -999 294 9.9 101340 76
2006-04-18 07:02:37 51°14.004 2°55.45 -999 242 9.9 101340 76
2006-04-18 07:02:42 51°14.004 2°55.45 -999 179 9.9 101340 76
2006-04-18 07:02:47 51°14.004 2°55.45 -999 194 9.9 101340 76
2006-04-18 07:02:51 51°14.004 2°55.45 -999 177 9.9 101340 76
2006-04-18 07:02:56 51°14.004 2°55.45 -999 191 9.9 101340 76
2006-04-18 07:03:02 51°14.004 2°55.45 -999 180 9.9 101340 76
2006-04-18 07:03:07 51°14.004 2°55.45 -999 257 9.9 101340 76
2006-04-18 07:03:12 51°14.004 2°55.45 -999 313 9.9 101340 76
2006-04-18 07:03:17 51°14.004 2°55.45 -999 319 9.9 101340 76
2006-04-18 07:03:22 51°14.004 2°55.45 -999 272 9.9 101340 76
2006-04-18 07:03:27 51°14.004 2°55.45 -999 231 9.9 101340 76
2006-04-18 07:03:32 51°14.004 2°55.45 -999 260 9.9 101340 76
2006-04-18 07:03:36 51°14.004 2°55.45 -999 282 9.9 101340 76
2006-04-18 07:03:42 51°14.004 2°55.45 -999 281 9.9 101340 76
2006-04-18 07:03:47 51°14.004 2°55.45 -999 213 9.9 101340 76
2006-04-18 07:03:51 51°14.004 2°55.45 -999 243 9.9 101340 76
2006-04-18 07:03:57 51°14.005 2°55.45 -999 282 9.9 101340 76
2006-04-18 07:04:02 51°14.005 2°55.451 -999 283 9.9 101340 76
2006-04-18 07:04:06 51°14.005 2°55.451 -999 254 9.9 101340 76
2006-04-18 07:04:12 51°14.006 2°55.451 -999 186 9.9 101340 76
2006-04-18 07:04:17 51°14.006 2°55.451 -999 200 9.9 101340 76
2006-04-18 07:04:22 51°14.007 2°55.45 -999 265 9.9 101340 76
2006-04-18 07:04:27 51°14.007 2°55.45 -999 248 9.9 101340 76
2006-04-18 07:04:32 51°14.007 2°55.45 -999 245 9.9 101340 76
2006-04-18 07:04:37 51°14.007 2°55.45 -999 249 9.9 101340 76
2006-04-18 07:04:42 51°14.007 2°55.45 -999 266 9.9 101340 76
2006-04-18 07:04:47 51°14.007 2°55.45 -999 279 9.9 101340 76
2006-04-18 07:04:52 51°14.007 2°55.45 -999 272 9.9 101340 77
2006-04-18 07:04:57 51°14.007 2°55.45 -999 259 9.9 101340 77
2006-04-18 07:05:02 51°14.007 2°55.45 -999 270 9.9 101340 77
2006-04-18 07:05:07 51°14.007 2°55.45 -999 294 9.9 101340 76
2006-04-18 07:05:12 51°14.007 2°55.45 -999 256 9.9 101340 76
2006-04-18 07:05:18 51°14.007 2°55.45 -999 253 9.9 101340 76
2006-04-18 07:05:23 51°14.007 2°55.45 -999 261 9.9 101340 76
2006-04-18 07:05:27 51°14.007 2°55.449 -999 284 9.9 101340 76
2006-04-18 07:05:32 51°14.007 2°55.45 -999 235 10 101340 76
2006-04-18 07:05:37 51°14.007 2°55.449 -999 288 10 101340 76
2006-04-18 07:05:42 51°14.007 2°55.45 -999 279 10 101340 76
2006-04-18 07:05:47 51°14.007 2°55.45 -999 258 10 101340 76
2006-04-18 07:05:52 51°14.007 2°55.45 -999 262 10 101340 76
2006-04-18 07:05:58 51°14.006 2°55.449 -999 279 10 101340 76
2006-04-18 07:06:02 51°14.006 2°55.449 -999 286 10 101340 76
2006-04-18 07:06:07 51°14.006 2°55.449 -999 238 10 101340 76
2006-04-18 07:06:12 51°14.007 2°55.45 -999 239 10 101340 76
2006-04-18 07:06:18 51°14.007 2°55.45 -999 264 10 101340 76
2006-04-18 07:06:23 51°14.007 2°55.45 -999 281 10 101340 76
2006-04-18 07:06:27 51°14.007 2°55.45 -999 282 10 101340 76
2006-04-18 07:06:32 51°14.007 2°55.45 -999 297 10 101340 76
2006-04-18 07:06:38 51°14.007 2°55.45 -999 282 10 101340 76
2006-04-18 07:06:43 51°14.007 2°55.45 -999 285 10 101340 76
2006-04-18 07:06:48 51°14.007 2°55.45 -999 255 10 101340 76
2006-04-18 07:06:52 51°14.007 2°55.45 -999 276 10 101340 76
2006-04-18 07:06:57 51°14.007 2°55.449 -999 230 9.9 101340 76
2006-04-18 07:07:03 51°14.006 2°55.449 -999 252 9.9 101340 76
2006-04-18 07:07:07 51°14.007 2°55.45 -999 241 9.9 101340 76
2006-04-18 07:07:12 51°14.007 2°55.45 -999 200 9.9 101340 76
2006-04-18 07:07:18 51°14.007 2°55.45 -999 210 9.9 101340 76
2006-04-18 07:07:23 51°14.007 2°55.45 -999 287 9.9 101340 76
2006-04-18 07:07:27 51°14.007 2°55.451 -999 281 9.9 101340 76
2006-04-18 07:07:32 51°14.007 2°55.451 -999 301 9.9 101340 76
2006-04-18 07:07:38 51°14.007 2°55.45 -999 299 9.9 101340 76
2006-04-18 07:07:42 51°14.007 2°55.45 -999 264 9.9 101340 76
2006-04-18 07:07:47 51°14.007 2°55.45 -999 277 9.9 101350 76
2006-04-18 07:07:52 51°14.007 2°55.45 -999 251 9.9 101350 76
2006-04-18 07:07:57 51°14.007 2°55.45 -999 254 9.9 101350 76
2006-04-18 07:08:02 51°14.007 2°55.45 -999 291 10 101350 76
2006-04-18 07:08:07 51°14.007 2°55.45 -999 225 10 101350 76
2006-04-18 07:08:12 51°14.007 2°55.45 -999 235 9.9 101350 76
2006-04-18 07:08:17 51°14.007 2°55.45 -999 245 9.9 101350 76
2006-04-18 07:08:22 51°14.007 2°55.45 -999 262 9.9 101340 76
2006-04-18 07:08:27 51°14.007 2°55.451 -999 198 9.9 101340 76
2006-04-18 07:08:32 51°14.007 2°55.45 -999 298 9.9 101340 76
2006-04-18 07:08:38 51°14.007 2°55.45 -999 234 9.9 101350 76
2006-04-18 07:08:43 51°14.007 2°55.45 -999 196 9.9 101350 76
2006-04-18 07:08:48 51°14.007 2°55.45 -999 311 9.9 101350 76
2006-04-18 07:08:52 51°14.007 2°55.45 -999 268 10 101350 76
2006-04-18 07:08:57 51°14.007 2°55.45 -999 197 10 101350 76
2006-04-18 07:09:03 51°14.007 2°55.45 -999 241 10 101340 76
2006-04-18 07:09:07 51°14.007 2°55.45 -999 280 10 101340 76
2006-04-18 07:09:13 51°14.007 2°55.45 -999 236 10 101340 76
2006-04-18 07:09:17 51°14.007 2°55.45 -999 253 10 101340 76
2006-04-18 07:09:22 51°14.007 2°55.45 -999 271 10 101350 76
2006-04-18 07:09:27 51°14.007 2°55.45 -999 273 10 101350 76
2006-04-18 07:09:33 51°14.007 2°55.45 -999 261 10 101350 76
2006-04-18 07:09:37 51°14.007 2°55.45 -999 272 10 101340 76
2006-04-18 07:09:43 51°14.007 2°55.45 -999 226 10 101340 76
2006-04-18 07:09:47 51°14.007 2°55.45 -999 15 10 101340 76
2006-04-18 07:09:53 51°14.007 2°55.45 -999 235 10 101350 76
2006-04-18 07:09:57 51°14.007 2°55.45 -999 232 10 101350 76
2006-04-18 07:10:03 51°14.007 2°55.45 -999 254 10 101350 76
2006-04-18 07:10:07 51°14.007 2°55.45 -999 261 10 101350 76
2006-04-18 07:10:13 51°14.007 2°55.45 -999 256 9.9 101350 76
2006-04-18 07:10:18 51°14.007 2°55.45 -999 234 9.9 101350 76
2006-04-18 07:10:23 51°14.007 2°55.45 -999 269 9.9 101340 76
2006-04-18 07:10:27 51°14.007 2°55.45 -999 273 9.9 101340 76
2006-04-18 07:10:32 51°14.007 2°55.45 -999 210 9.9 101340 76
2006-04-18 07:10:38 51°14.007 2°55.45 -999 232 9.9 101350 76
2006-04-18 07:10:43 51°14.007 2°55.45 -999 220 9.9 101350 76
2006-04-18 07:10:47 51°14.007 2°55.45 -999 216 9.9 101340 76
2006-04-18 07:10:53 51°14.007 2°55.45 -999 217 9.9 101340 76
2006-04-18 07:10:58 51°14.007 2°55.45 -999 261 9.9 101350 76
2006-04-18 07:11:03 51°14.007 2°55.45 -999 287 9.9 101350 76
2006-04-18 07:11:07 51°14.007 2°55.45 -999 288 9.9 101350 76
2006-04-18 07:11:12 51°14.007 2°55.45 -999 232 10 101350 76
2006-04-18 07:11:17 51°14.007 2°55.45 -999 246 10 101350 76
2006-04-18 07:11:22 51°14.007 2°55.45 -999 248 10 101350 76
2006-04-18 07:11:27 51°14.007 2°55.45 -999 186 10 101350 76
2006-04-18 07:11:32 51°14.007 2°55.45 -999 198 10 101350 76
2006-04-18 07:11:38 51°14.007 2°55.45 -999 261 10 101350 76
2006-04-18 07:11:43 51°14.007 2°55.449 -999 261 10 101350 76
2006-04-18 07:11:48 51°14.007 2°55.449 -999 256 10 101350 76
2006-04-18 07:11:52 51°14.007 2°55.449 -999 279 10 101350 76
2006-04-18 07:11:58 51°14.007 2°55.449 -999 242 10 101350 76
2006-04-18 07:12:03 51°14.007 2°55.449 -999 267 10 101350 76
2006-04-18 07:12:07 51°14.007 2°55.449 -999 290 10 101350 76
2006-04-18 07:12:12 51°14.007 2°55.449 -999 300 10 101350 76
2006-04-18 07:12:17 51°14.007 2°55.449 -999 267 10 101350 76
2006-04-18 07:12:23 51°14.007 2°55.449 -999 258 10 101350 76
2006-04-18 07:12:27 51°14.007 2°55.449 -999 282 10 101350 76
2006-04-18 07:12:33 51°14.007 2°55.449 -999 282 10 101350 76
2006-04-18 07:12:38 51°14.007 2°55.449 -999 261 10 101350 76
2006-04-18 07:12:43 51°14.007 2°55.449 -999 243 10 101350 76
2006-04-18 07:12:47 51°14.007 2°55.449 -999 241 10 101350 76
2006-04-18 07:12:53 51°14.007 2°55.449 -999 258 10 101350 76
2006-04-18 07:12:58 51°14.007 2°55.449 -999 222 10 101350 76
2006-04-18 07:13:03 51°14.006 2°55.449 -999 255 10 101350 76
2006-04-18 07:13:08 51°14.006 2°55.448 -999 246 10 101350 76
2006-04-18 07:13:12 51°14.006 2°55.448 -999 246 10 101340 76
2006-04-18 07:13:18 51°14.006 2°55.448 -999 299 10 101340 76
2006-04-18 07:13:22 51°14.006 2°55.448 -999 275 10 101350 76
2006-04-18 07:13:28 51°14.006 2°55.449 -999 228 10 101350 76
2006-04-18 07:13:32 51°14.006 2°55.449 -999 247 10 101350 76
2006-04-18 07:13:38 51°14.007 2°55.449 -999 252 10 101350 76
2006-04-18 07:13:43 51°14.007 2°55.449 -999 239 10 101350 76
2006-04-18 07:13:47 51°14.007 2°55.449 -999 275 10 101350 76
2006-04-18 07:13:53 51°14.007 2°55.449 -999 233 10 101350 76
2006-04-18 07:13:57 51°14.007 2°55.449 -999 219 10 101350 76
2006-04-18 07:14:02 51°14.007 2°55.449 -999 196 10 101350 76
2006-04-18 07:14:07 51°14.007 2°55.449 -999 207 10.1 101350 76
2006-04-18 07:14:12 51°14.007 2°55.449 -999 301 10.1 101350 76
2006-04-18 07:14:17 51°14.007 2°55.449 -999 311 10.1 101350 76
2006-04-18 07:14:22 51°14.007 2°55.449 -999 206 10.1 101350 76
2006-04-18 07:14:27 51°14.007 2°55.449 -999 284 10.1 101350 76
2006-04-18 07:14:32 51°14.007 2°55.449 -999 266 10.1 101350 76
2006-04-18 07:14:37 51°14.007 2°55.449 -999 253 10.1 101350 76
2006-04-18 07:14:42 51°14.007 2°55.449 -999 249 10.1 101340 76
2006-04-18 07:14:48 51°14.007 2°55.449 -999 252 10.1 101340 76
2006-04-18 07:14:52 51°14.007 2°55.449 -999 266 10.1 101350 76
2006-04-18 07:14:57 51°14.007 2°55.449 -999 185 10.1 101350 76
2006-04-18 07:15:02 51°14.007 2°55.449 -999 206 10.1 101350 76
2006-04-18 07:15:07 51°14.007 2°55.449 -999 175 10.1 101350 76
2006-04-18 07:15:12 51°14.007 2°55.449 -999 156 10.1 101350 76
2006-04-18 07:15:17 51°14.007 2°55.449 -999 135 10.1 101350 76
2006-04-18 07:15:22 51°14.007 2°55.449 -999 135 10.1 101340 76
2006-04-18 07:15:27 51°14.007 2°55.449 -999 105 10.1 101340 76
2006-04-18 07:15:32 51°14.007 2°55.449 -999 114 10.1 101340 76
2006-04-18 07:15:37 51°14.007 2°55.449 -999 104 10.1 101340 76
2006-04-18 07:15:42 51°14.007 2°55.45 -999 22 10.2 101340 76
2006-04-18 07:15:47 51°14.007 2°55.45 -999 25 10.2 101340 76
2006-04-18 07:15:52 51°14.007 2°55.449 -999 215 10.2 101350 76
2006-04-18 07:15:57 51°14.007 2°55.449 -999 289 10.2 101350 76
2006-04-18 07:16:02 51°14.007 2°55.449 -999 259 10.2 101340 76
2006-04-18 07:16:07 51°14.007 2°55.449 -999 258 10.2 101340 76
2006-04-18 07:16:11 51°14.006 2°55.449 -999 282 10.2 101340 76
2006-04-18 07:16:17 51°14.006 2°55.449 -999 226 10.2 101340 76
2006-04-18 07:16:22 51°14.006 2°55.449 -999 213 10.2 101340 76
2006-04-18 07:16:27 51°14.006 2°55.449 -999 252 10.2 101340 76
2006-04-18 07:16:32 51°14.006 2°55.449 -999 255 10.2 101350 76
2006-04-18 07:16:37 51°14.007 2°55.449 -999 156 10.2 101350 76
2006-04-18 07:16:42 51°14.007 2°55.45 -999 193 10.2 101340 75
2006-04-18 07:16:47 51°14.007 2°55.45 -999 257 10.2 101340 75
2006-04-18 07:16:52 51°14.007 2°55.45 -999 275 10.2 101340 75
2006-04-18 07:16:57 51°14.007 2°55.45 -999 250 10.2 101340 75
2006-04-18 07:17:02 51°14.007 2°55.45 -999 265 10.2 101340 75
2006-04-18 07:17:07 51°14.007 2°55.45 -999 295 10.2 101340 75
2006-04-18 07:17:11 51°14.007 2°55.45 -999 230 10.2 101350 75
2006-04-18 07:17:16 51°14.007 2°55.45 -999 299 10.2 101350 75
2006-04-18 07:17:22 51°14.007 2°55.45 -999 194 10.2 101350 75
2006-04-18 07:17:27 51°14.007 2°55.45 -999 271 10.2 101350 75
2006-04-18 07:17:32 51°14.007 2°55.45 -999 281 10.2 101340 75
2006-04-18 07:17:37 51°14.007 2°55.45 -999 228 10.2 101340 75
2006-04-18 07:17:42 51°14.007 2°55.45 -999 269 10.2 101350 75
2006-04-18 07:17:47 51°14.007 2°55.45 -999 318 10.2 101350 75
2006-04-18 07:17:51 51°14.007 2°55.449 -999 322 10.3 101350 75
2006-04-18 07:17:57 51°14.007 2°55.449 -999 253 10.3 101350 75
2006-04-18 07:18:02 51°14.007 2°55.449 -999 182 10.3 101340 75
2006-04-18 07:18:07 51°14.006 2°55.449 -999 136 10.3 101340 75
2006-04-18 07:18:12 51°14.006 2°55.449 -999 137 10.3 101340 75
2006-04-18 07:18:17 51°14.006 2°55.449 -999 211 10.3 101350 75
2006-04-18 07:18:22 51°14.006 2°55.449 -999 277 10.3 101350 75
2006-04-18 07:18:27 51°14.006 2°55.449 -999 275 10.3 101350 75
2006-04-18 07:18:32 51°14.006 2°55.449 -999 278 10.3 101350 75
2006-04-18 07:18:37 51°14.006 2°55.449 -999 258 10.3 101340 75
2006-04-18 07:18:42 51°14.006 2°55.449 -999 283 10.3 101350 75
2006-04-18 07:18:47 51°14.007 2°55.449 -999 252 10.3 101350 75
2006-04-18 07:18:52 51°14.007 2°55.45 -999 290 10.3 101350 75
2006-04-18 07:18:57 51°14.006 2°55.449 -999 275 10.3 101350 75
2006-04-18 07:19:02 51°14.006 2°55.449 -999 251 10.3 101350 75
2006-04-18 07:19:07 51°14.006 2°55.449 -999 228 10.3 101350 75
2006-04-18 07:19:13 51°14.006 2°55.449 -999 270 10.3 101340 74
2006-04-18 07:19:17 51°14.006 2°55.449 -999 242 10.3 101340 74
2006-04-18 07:19:22 51°14.007 2°55.449 -999 230 10.3 101340 74
2006-04-18 07:19:27 51°14.007 2°55.449 -999 230 10.3 101350 74
2006-04-18 07:19:32 51°14.007 2°55.449 -999 235 10.2 101350 74
2006-04-18 07:19:37 51°14.007 2°55.449 -999 205 10.2 101350 74
2006-04-18 07:19:42 51°14.007 2°55.449 -999 168 10.2 101350 74
2006-04-18 07:19:47 51°14.007 2°55.449 -999 186 10.2 101350 74
2006-04-18 07:19:52 51°14.007 2°55.449 -999 281 10.2 101340 74
2006-04-18 07:19:57 51°14.007 2°55.449 -999 194 10.2 101340 74
2006-04-18 07:20:03 51°14.007 2°55.449 -999 146 10.2 101350 74
2006-04-18 07:20:07 51°14.007 2°55.449 -999 196 10.2 101350 74
2006-04-18 07:20:11 51°14.007 2°55.449 -999 307 10.2 101350 75
2006-04-18 07:20:17 51°14.007 2°55.449 -999 308 10.2 101350 75
2006-04-18 07:20:22 51°14.007 2°55.449 -999 263 10.2 101350 75
2006-04-18 07:20:27 51°14.007 2°55.449 -999 273 10.2 101350 75
2006-04-18 07:20:32 51°14.007 2°55.449 -999 222 10.2 101350 75
2006-04-18 07:20:37 51°14.007 2°55.449 -999 244 10.2 101350 75
2006-04-18 07:20:42 51°14.007 2°55.449 -999 192 10.2 101350 75
2006-04-18 07:20:47 51°14.007 2°55.449 -999 275 10.2 101340 75
2006-04-18 07:20:51 51°14.007 2°55.449 -999 207 10.2 101350 75
2006-04-18 07:20:57 51°14.007 2°55.449 -999 278 10.2 101350 75
2006-04-18 07:21:02 51°14.006 2°55.449 -999 276 10.2 101350 75
2006-04-18 07:21:07 51°14.006 2°55.449 -999 256 10.2 101350 75
2006-04-18 07:21:12 51°14.006 2°55.449 -999 255 10.2 101350 75
2006-04-18 07:21:17 51°14.007 2°55.449 -999 295 10.2 101350 75
2006-04-18 07:21:22 51°14.006 2°55.449 -999 283 10.2 101350 75
2006-04-18 07:21:28 51°14.007 2°55.449 -999 210 10.2 101350 75
2006-04-18 07:21:32 51°14.006 2°55.449 -999 210 10.2 101350 75
2006-04-18 07:21:36 51°14.006 2°55.449 -999 253 10.2 101350 75
2006-04-18 07:21:42 51°14.007 2°55.449 -999 279 10.2 101350 75
2006-04-18 07:21:47 51°14.007 2°55.449 -999 265 10.2 101350 75
2006-04-18 07:21:52 51°14.006 2°55.449 -999 223 10.2 101350 75
2006-04-18 07:21:57 51°14.007 2°55.449 -999 257 10.2 101350 75
2006-04-18 07:22:02 51°14.007 2°55.449 -999 282 10.2 101350 75
2006-04-18 07:22:07 51°14.007 2°55.449 -999 274 10.2 101350 75
2006-04-18 07:22:12 51°14.006 2°55.449 -999 266 10.2 101350 75
2006-04-18 07:22:18 51°14.006 2°55.449 -999 269 10.2 101350 75
2006-04-18 07:22:23 51°14.007 2°55.449 -999 267 10.2 101350 75
2006-04-18 07:22:28 51°14.007 2°55.449 -999 304 10.2 101350 75
2006-04-18 07:22:32 51°14.007 2°55.449 -999 306 10.2 101350 75
2006-04-18 07:22:38 51°14.007 2°55.449 -999 263 10.2 101350 75
2006-04-18 07:22:42 51°14.007 2°55.449 -999 254 10.2 101340 75
2006-04-18 07:22:48 51°14.007 2°55.449 -999 214 10.2 101340 75
2006-04-18 07:22:52 51°14.007 2°55.449 -999 285 10.2 101350 75
2006-04-18 07:22:57 51°14.007 2°55.449 -999 258 10.2 101350 75
2006-04-18 07:23:02 51°14.007 2°55.449 -999 276 10.2 101350 75
2006-04-18 07:23:07 51°14.007 2°55.449 -999 234 10.2 101350 75
2006-04-18 07:23:12 51°14.007 2°55.449 -999 235 10.2 101350 75
2006-04-18 07:23:18 51°14.007 2°55.449 -999 283 10.2 101350 75
2006-04-18 07:23:23 51°14.007 2°55.449 -999 266 10.2 101350 75
2006-04-18 07:23:27 51°14.007 2°55.449 -999 256 10.2 101350 75
2006-04-18 07:23:33 51°14.007 2°55.449 -999 261 10.2 101350 75
2006-04-18 07:23:37 51°14.007 2°55.448 -999 294 10.2 101350 75
2006-04-18 07:23:42 51°14.007 2°55.448 -999 254 10.2 101350 75
2006-04-18 07:23:48 51°14.007 2°55.448 -999 236 10.2 101350 75
2006-04-18 07:23:52 51°14.007 2°55.448 -999 278 10.2 101350 75
2006-04-18 07:23:58 51°14.007 2°55.448 -999 242 10.2 101350 75
2006-04-18 07:24:02 51°14.007 2°55.448 -999 252 10.2 101350 75
2006-04-18 07:24:06 51°14.007 2°55.448 -999 263 10.2 101350 75
2006-04-18 07:24:12 51°14.007 2°55.448 -999 270 10.2 101350 75
2006-04-18 07:24:18 51°14.007 2°55.448 -999 283 10.2 101350 75
2006-04-18 07:24:23 51°14.007 2°55.448 -999 356 10.2 101350 75
2006-04-18 07:24:27 51°14.007 2°55.448 -999 199 10.2 101350 75
2006-04-18 07:24:32 51°14.007 2°55.448 -999 218 10.2 101350 75
2006-04-18 07:24:37 51°14.007 2°55.448 -999 258 10.2 101350 75
2006-04-18 07:24:42 51°14.007 2°55.448 -999 266 10.1 101350 75
2006-04-18 07:24:47 51°14.007 2°55.448 -999 257 10.1 101350 75
2006-04-18 07:24:52 51°14.007 2°55.448 -999 222 10.1 101350 75
2006-04-18 07:24:57 51°14.007 2°55.448 -999 243 10.1 101350 75
2006-04-18 07:25:02 51°14.007 2°55.448 -999 190 10.1 101350 75
2006-04-18 07:25:07 51°14.007 2°55.448 -999 276 10.1 101350 75
2006-04-18 07:25:12 51°14.007 2°55.448 -999 318 10.1 101350 75
2006-04-18 07:25:17 51°14.007 2°55.449 -999 293 10.1 101350 75
2006-04-18 07:25:21 51°14.007 2°55.449 -999 290 10.1 101350 75
2006-04-18 07:25:27 51°14.007 2°55.449 -999 285 10.1 101350 75
2006-04-18 07:25:32 51°14.007 2°55.449 -999 294 10.1 101360 75
2006-04-18 07:25:37 51°14.007 2°55.449 -999 283 10.1 101360 75
2006-04-18 07:25:42 51°14.007 2°55.449 -999 276 10.1 101350 75
2006-04-18 07:25:47 51°14.007 2°55.449 -999 260 10.1 101350 75
2006-04-18 07:25:52 51°14.007 2°55.449 -999 260 10.1 101350 75
2006-04-18 07:25:57 51°14.007 2°55.449 -999 287 10.1 101350 75
2006-04-18 07:26:02 51°14.007 2°55.449 -999 272 10.1 101350 75
2006-04-18 07:26:06 51°14.007 2°55.449 -999 276 10.1 101350 75
2006-04-18 07:26:12 51°14.007 2°55.449 -999 249 10.1 101350 75
2006-04-18 07:26:17 51°14.007 2°55.449 -999 231 10.1 101350 75
2006-04-18 07:26:22 51°14.007 2°55.449 -999 277 10.1 101350 75
2006-04-18 07:26:27 51°14.007 2°55.449 -999 267 10.1 101350 75
2006-04-18 07:26:32 51°14.007 2°55.449 -999 256 10.1 101350 75
2006-04-18 07:26:37 51°14.007 2°55.45 -999 247 10.1 101350 75
2006-04-18 07:26:42 51°14.007 2°55.45 -999 214 10.2 101350 75
2006-04-18 07:26:47 51°14.007 2°55.45 -999 258 10.2 101350 75
2006-04-18 07:26:52 51°14.006 2°55.45 -999 308 10.1 101350 75
2006-04-18 07:26:57 51°14.006 2°55.449 -999 299 10.1 101350 75
2006-04-18 07:27:02 51°14.006 2°55.449 -999 263 10.1 101350 75
2006-04-18 07:27:07 51°14.006 2°55.449 -999 277 10.1 101350 75
2006-04-18 07:27:12 51°14.006 2°55.449 -999 263 10.1 101350 75
2006-04-18 07:27:17 51°14.006 2°55.449 -999 296 10.1 101350 75
2006-04-18 07:27:22 51°14.006 2°55.449 -999 300 10.1 101350 75
2006-04-18 07:27:27 51°14.006 2°55.449 -999 302 10.1 101350 75
2006-04-18 07:27:32 51°14.006 2°55.449 -999 328 10.1 101350 75
2006-04-18 07:27:37 51°14.006 2°55.449 -999 254 10.1 101350 75
2006-04-18 07:27:43 51°14.006 2°55.449 -999 204 10.1 101350 75
2006-04-18 07:27:47 51°14.006 2°55.449 -999 259 10.1 101350 75
2006-04-18 07:27:52 51°14.006 2°55.449 -999 290 10.1 101350 75
2006-04-18 07:27:56 51°14.006 2°55.449 -999 203 10.1 101350 75
2006-04-18 07:28:02 51°14.006 2°55.449 -999 286 10.1 101350 75
2006-04-18 07:28:07 51°14.006 2°55.449 -999 260 10.1 101350 75
2006-04-18 07:28:12 51°14.006 2°55.45 -999 258 10.1 101350 75
2006-04-18 07:28:18 51°14.006 2°55.45 -999 303 10.1 101350 75
2006-04-18 07:28:23 51°14.006 2°55.449 -999 293 10.1 101350 75
2006-04-18 07:28:27 51°14.006 2°55.449 -999 243 10.1 101340 75
2006-04-18 07:28:33 51°14.006 2°55.45 -999 247 10.1 101350 75
2006-04-18 07:28:38 51°14.006 2°55.45 -999 259 10.1 101350 75
2006-04-18 07:28:42 51°14.006 2°55.45 -999 289 10 101350 75
2006-04-18 07:28:47 51°14.006 2°55.45 -999 282 10 101350 75
2006-04-18 07:28:52 51°14.006 2°55.45 -999 297 10 101350 75
2006-04-18 07:28:58 51°14.006 2°55.45 -999 274 10 101350 75
2006-04-18 07:29:03 51°14.006 2°55.45 -999 285 10 101350 75
2006-04-18 07:29:07 51°14.006 2°55.45 -999 296 10 101350 75
2006-04-18 07:29:12 51°14.006 2°55.45 -999 299 10 101350 75
2006-04-18 07:29:17 51°14.006 2°55.45 -999 280 10 101350 75
2006-04-18 07:29:23 51°14.006 2°55.45 -999 270 10 101350 75
2006-04-18 07:29:27 51°14.006 2°55.45 -999 265 10 101350 75
2006-04-18 07:29:32 51°14.006 2°55.45 -999 254 10 101350 75
2006-04-18 07:29:38 51°14.006 2°55.45 -999 274 10 101350 75
2006-04-18 07:29:43 51°14.007 2°55.45 -999 306 10 101350 75
2006-04-18 07:29:47 51°14.006 2°55.45 -999 284 10 101350 75
2006-04-18 07:29:53 51°14.006 2°55.45 -999 283 10 101350 75
2006-04-18 07:29:58 51°14.006 2°55.45 -999 256 9.9 101350 75
2006-04-18 07:30:03 51°14.006 2°55.45 -999 273 9.9 101350 75
2006-04-18 07:30:07 51°14.006 2°55.45 -999 278 9.9 101350 75
2006-04-18 07:30:13 51°14.006 2°55.451 -999 253 9.9 101350 76
2006-04-18 07:30:17 51°14.006 2°55.451 -999 279 9.9 101350 76
2006-04-18 07:30:22 51°14.006 2°55.451 -999 277 9.9 101350 76
2006-04-18 07:30:27 51°14.006 2°55.451 -999 268 9.9 101350 76
2006-04-18 07:30:33 51°14.006 2°55.451 -999 284 9.9 101350 76
2006-04-18 07:30:37 51°14.006 2°55.451 -999 259 9.9 101350 76
2006-04-18 07:30:42 51°14.006 2°55.451 -999 270 9.9 101350 76
2006-04-18 07:30:47 51°14.006 2°55.451 -999 285 9.9 101350 76
2006-04-18 07:30:53 51°14.006 2°55.45 -999 282 9.9 101350 76
2006-04-18 07:30:58 51°14.006 2°55.45 -999 289 9.9 101350 76
2006-04-18 07:31:03 51°14.006 2°55.45 -999 267 9.9 101350 76
2006-04-18 07:31:07 51°14.006 2°55.45 -999 253 9.9 101350 76
2006-04-18 07:31:12 51°14.006 2°55.45 -999 236 9.9 101350 76
2006-04-18 07:31:16 51°14.006 2°55.45 -999 308 9.9 101350 76
2006-04-18 07:31:22 51°14.006 2°55.451 -999 240 9.9 101350 76
2006-04-18 07:31:27 51°14.006 2°55.451 -999 258 9.9 101350 76
2006-04-18 07:31:32 51°14.006 2°55.451 -999 297 9.9 101350 76
2006-04-18 07:31:37 51°14.006 2°55.451 -999 287 9.9 101350 76
2006-04-18 07:31:42 51°14.006 2°55.451 -999 286 9.9 101350 76
2006-04-18 07:31:47 51°14.006 2°55.451 -999 231 9.9 101350 76
2006-04-18 07:31:52 51°14.006 2°55.451 -999 289 9.9 101350 76
2006-04-18 07:31:57 51°14.006 2°55.451 -999 289 9.9 101350 76
2006-04-18 07:32:02 51°14.006 2°55.451 -999 301 9.9 101350 76
2006-04-18 07:32:07 51°14.006 2°55.451 -999 251 9.9 101350 76
2006-04-18 07:32:12 51°14.006 2°55.451 -999 226 9.9 101350 76
2006-04-18 07:32:17 51°14.006 2°55.45 -999 249 9.9 101350 76
2006-04-18 07:32:22 51°14.006 2°55.451 -999 257 9.9 101350 76
2006-04-18 07:32:27 51°14.006 2°55.451 -999 259 9.9 101350 76
2006-04-18 07:32:31 51°14.006 2°55.451 -999 272 9.9 101350 76
2006-04-18 07:32:37 51°14.006 2°55.45 -999 292 9.9 101350 76
2006-04-18 07:32:42 51°14.006 2°55.45 -999 310 9.9 101350 76
2006-04-18 07:32:46 51°14.006 2°55.45 -999 310 9.9 101350 76
2006-04-18 07:32:52 51°14.006 2°55.45 -999 268 9.9 101360 76
2006-04-18 07:32:56 51°14.006 2°55.45 -999 273 9.9 101360 76
2006-04-18 07:33:02 51°14.006 2°55.45 -999 269 9.9 101360 76
2006-04-18 07:33:07 51°14.006 2°55.45 -999 251 9.9 101350 76
2006-04-18 07:33:12 51°14.006 2°55.45 -999 245 9.9 101350 77
2006-04-18 07:33:16 51°14.006 2°55.45 -999 233 9.9 101350 77
2006-04-18 07:33:22 51°14.006 2°55.45 -999 282 9.9 101350 77
2006-04-18 07:33:27 51°14.006 2°55.449 -999 234 9.9 101350 77
2006-04-18 07:33:32 51°14.006 2°55.449 -999 283 9.9 101350 77
2006-04-18 07:33:38 51°14.006 2°55.449 -999 265 9.9 101350 77
2006-04-18 07:33:43 51°14.006 2°55.45 -999 270 9.9 101350 77
2006-04-18 07:33:47 51°14.006 2°55.449 -999 258 9.9 101350 77
2006-04-18 07:33:52 51°14.006 2°55.449 -999 194 9.9 101350 77
2006-04-18 07:33:57 51°14.006 2°55.449 -999 259 9.9 101350 77
2006-04-18 07:34:02 51°14.006 2°55.449 -999 307 9.9 101350 77
2006-04-18 07:34:07 51°14.006 2°55.449 -999 281 9.9 101350 77
2006-04-18 07:34:12 51°14.006 2°55.449 -999 289 9.9 101350 77
2006-04-18 07:34:18 51°14.006 2°55.449 -999 276 9.9 101350 77
2006-04-18 07:34:22 51°14.006 2°55.449 -999 266 9.9 101350 77
2006-04-18 07:34:27 51°14.006 2°55.449 -999 256 9.9 101350 77
2006-04-18 07:34:32 51°14.006 2°55.449 -999 256 9.8 101350 77
2006-04-18 07:34:37 51°14.006 2°55.449 -999 282 9.8 101350 77
2006-04-18 07:34:42 51°14.006 2°55.449 -999 268 9.9 101350 77
2006-04-18 07:34:47 51°14.006 2°55.449 -999 268 9.9 101350 77
2006-04-18 07:34:52 51°14.007 2°55.45 -999 283 9.9 101350 77
2006-04-18 07:34:57 51°14.007 2°55.45 -999 289 9.9 101350 77
2006-04-18 07:35:02 51°14.007 2°55.45 -999 278 9.8 101350 77
2006-04-18 07:35:08 51°14.007 2°55.451 -999 285 9.8 101350 77
2006-04-18 07:35:12 51°14.007 2°55.451 -999 289 9.8 101350 77
2006-04-18 07:35:18 51°14.007 2°55.451 -999 282 9.8 101350 77
2006-04-18 07:35:23 51°14.007 2°55.45 -999 274 9.8 101350 77
2006-04-18 07:35:27 51°14.007 2°55.45 -999 285 9.8 101350 77
2006-04-18 07:35:32 51°14.007 2°55.45 -999 227 9.8 101350 77
2006-04-18 07:35:38 51°14.007 2°55.45 -999 244 9.8 101350 77
2006-04-18 07:35:42 51°14.007 2°55.45 -999 256 9.8 101350 77
2006-04-18 07:35:47 51°14.007 2°55.45 -999 303 9.8 101350 77
2006-04-18 07:35:52 51°14.007 2°55.45 -999 266 9.8 101350 77
2006-04-18 07:35:57 51°14.007 2°55.451 -999 276 9.8 101350 77
2006-04-18 07:36:02 51°14.007 2°55.45 -999 275 9.8 101350 77
2006-04-18 07:36:07 51°14.007 2°55.45 -999 258 9.8 101350 77
2006-04-18 07:36:12 51°14.007 2°55.45 -999 252 9.8 101350 77
2006-04-18 07:36:18 51°14.007 2°55.45 -999 256 9.8 101350 77
2006-04-18 07:36:23 51°14.007 2°55.449 -999 280 9.8 101350 77
2006-04-18 07:36:27 51°14.006 2°55.449 -999 252 9.8 101350 77
2006-04-18 07:36:32 51°14.006 2°55.449 -999 304 9.8 101350 77
2006-04-18 07:36:37 51°14.006 2°55.449 -999 -999 9.8 101350 77
2006-04-18 07:36:43 51°14.006 2°55.449 -999 287 9.8 101350 77
2006-04-18 07:36:48 51°14.007 2°55.449 -999 282 9.8 101350 77
2006-04-18 07:36:52 51°14.007 2°55.449 -999 290 9.8 101350 77
2006-04-18 07:36:57 51°14.007 2°55.449 -999 279 9.8 101350 77
2006-04-18 07:37:02 51°14.006 2°55.448 -999 302 9.8 101350 77
2006-04-18 07:37:07 51°14.006 2°55.448 -999 236 9.8 101350 77
2006-04-18 07:37:12 51°14.006 2°55.448 -999 263 9.8 101350 77
2006-04-18 07:37:17 51°14.006 2°55.448 -999 248 9.8 101350 77
2006-04-18 07:37:22 51°14.006 2°55.448 -999 282 9.8 101350 77
2006-04-18 07:37:27 51°14.006 2°55.448 -999 269 9.8 101350 77
2006-04-18 07:37:32 51°14.006 2°55.448 -999 224 9.8 101350 77
2006-04-18 07:37:37 51°14.006 2°55.448 -999 285 9.8 101350 77
2006-04-18 07:37:42 51°14.006 2°55.448 -999 263 9.8 101350 78
2006-04-18 07:37:47 51°14.006 2°55.448 -999 281 9.8 101350 78
2006-04-18 07:37:52 51°14.006 2°55.448 -999 247 9.9 101350 78
2006-04-18 07:37:58 51°14.006 2°55.448 -999 322 9.9 101350 78
2006-04-18 07:38:03 51°14.006 2°55.448 -999 273 9.9 101350 78
2006-04-18 07:38:07 51°14.006 2°55.448 -999 313 9.9 101350 78
2006-04-18 07:38:12 51°14.006 2°55.448 -999 293 9.9 101350 78
2006-04-18 07:38:18 51°14.006 2°55.448 -999 254 9.9 101350 78
2006-04-18 07:38:22 51°14.006 2°55.448 -999 279 9.9 101360 77
2006-04-18 07:38:27 51°14.006 2°55.448 -999 267 9.9 101360 77
2006-04-18 07:38:32 51°14.006 2°55.448 -999 264 9.9 101360 77
2006-04-18 07:38:37 51°14.006 2°55.448 -999 273 9.9 101350 77
2006-04-18 07:38:42 51°14.006 2°55.448 -999 258 9.8 101350 77
2006-04-18 07:38:47 51°14.006 2°55.448 -999 235 9.8 101350 77
2006-04-18 07:38:52 51°14.006 2°55.448 -999 199 9.9 101350 77
2006-04-18 07:38:57 51°14.006 2°55.448 -999 311 9.9 101350 77
2006-04-18 07:39:03 51°14.006 2°55.448 -999 262 9.9 101350 77
2006-04-18 07:39:07 51°14.006 2°55.448 -999 292 9.9 101350 77
2006-04-18 07:39:11 51°14.006 2°55.448 -999 283 9.9 101350 77
2006-04-18 07:39:17 51°14.006 2°55.448 -999 287 9.9 101350 77
2006-04-18 07:39:22 51°14.006 2°55.448 -999 303 9.9 101350 77
2006-04-18 07:39:28 51°14.006 2°55.448 -999 298 9.9 101350 77
2006-04-18 07:39:32 51°14.006 2°55.448 -999 244 9.9 101350 77
2006-04-18 07:39:37 51°14.006 2°55.448 -999 270 9.9 101350 77
2006-04-18 07:39:43 51°14.006 2°55.448 -999 277 9.9 101350 77
2006-04-18 07:39:47 51°14.006 2°55.448 -999 286 9.9 101350 77
2006-04-18 07:39:53 51°14.006 2°55.448 -999 282 9.9 101350 77
2006-04-18 07:39:58 51°14.006 2°55.448 -999 307 9.9 101350 77
2006-04-18 07:40:02 51°14.006 2°55.449 -999 312 9.9 101350 77
2006-04-18 07:40:07 51°14.006 2°55.449 -999 275 9.9 101350 77
2006-04-18 07:40:12 51°14.006 2°55.449 -999 241 9.9 101350 77
2006-04-18 07:40:18 51°14.006 2°55.449 -999 230 9.9 101350 77
2006-04-18 07:40:23 51°14.007 2°55.449 -999 293 9.9 101350 77
2006-04-18 07:40:27 51°14.007 2°55.45 -999 140 9.9 101350 77
2006-04-18 07:40:31 51°14.006 2°55.449 -999 288 9.9 101350 77
2006-04-18 07:40:38 51°14.007 2°55.45 -999 259 9.9 101350 77
2006-04-18 07:40:42 51°14.006 2°55.45 -999 275 9.9 101350 77
2006-04-18 07:40:47 51°14.006 2°55.45 -999 287 9.9 101350 77
2006-04-18 07:40:52 51°14.006 2°55.45 -999 250 9.9 101350 77
2006-04-18 07:40:58 51°14.007 2°55.45 -999 260 9.9 101350 77
2006-04-18 07:41:03 51°14.007 2°55.45 -999 295 9.9 101350 77
2006-04-18 07:41:07 51°14.007 2°55.45 -999 295 9.9 101350 77
2006-04-18 07:41:12 51°14.007 2°55.45 -999 274 9.9 101350 77
2006-04-18 07:41:17 51°14.007 2°55.45 -999 220 9.9 101350 77
2006-04-18 07:41:22 51°14.007 2°55.45 -999 235 9.9 101350 77
2006-04-18 07:41:27 51°14.007 2°55.45 -999 287 9.9 101350 77
2006-04-18 07:41:32 51°14.007 2°55.45 -999 278 9.9 101350 77
2006-04-18 07:41:37 51°14.007 2°55.45 -999 289 9.9 101350 77
2006-04-18 07:41:42 51°14.006 2°55.45 -999 269 9.9 101350 77
2006-04-18 07:41:48 51°14.006 2°55.45 -999 226 9.9 101350 77
2006-04-18 07:41:52 51°14.006 2°55.45 -999 235 9.9 101350 77
2006-04-18 07:41:58 51°14.006 2°55.45 -999 298 9.9 101350 77
2006-04-18 07:42:03 51°14.006 2°55.45 -999 246 9.9 101350 77
2006-04-18 07:42:07 51°14.006 2°55.45 -999 276 9.9 101350 77
2006-04-18 07:42:12 51°14.006 2°55.449 -999 277 9.9 101360 77
2006-04-18 07:42:18 51°14.006 2°55.449 -999 250 9.9 101360 77
2006-04-18 07:42:22 51°14.006 2°55.449 -999 257 9.9 101350 77
2006-04-18 07:42:28 51°14.006 2°55.449 -999 254 9.9 101350 77
2006-04-18 07:42:33 51°14.006 2°55.449 -999 247 9.9 101350 77
2006-04-18 07:42:38 51°14.006 2°55.449 -999 267 9.9 101350 77
2006-04-18 07:42:43 51°14.006 2°55.449 -999 255 10 101350 77
2006-04-18 07:42:47 51°14.006 2°55.45 -999 226 10 101350 77
2006-04-18 07:42:52 51°14.006 2°55.45 -999 251 9.9 101350 77
2006-04-18 07:42:58 51°14.006 2°55.449 -999 156 9.9 101350 77
2006-04-18 07:43:02 51°14.006 2°55.449 -999 270 9.9 101350 77
2006-04-18 07:43:07 51°14.006 2°55.449 -999 161 9.9 101350 77
2006-04-18 07:43:12 51°14.006 2°55.449 -999 185 9.9 101350 77
2006-04-18 07:43:17 51°14.006 2°55.449 -999 330 9.9 101350 77
2006-04-18 07:43:23 51°14.006 2°55.449 -999 247 9.9 101350 77
2006-04-18 07:43:28 51°14.006 2°55.449 -999 227 9.9 101350 77
2006-04-18 07:43:32 51°14.006 2°55.449 -999 289 9.9 101350 77
2006-04-18 07:43:37 51°14.006 2°55.449 -999 252 9.9 101350 77
2006-04-18 07:43:43 51°14.006 2°55.449 -999 247 10 101350 77
2006-04-18 07:43:48 51°14.006 2°55.449 -999 255 10 101350 77
2006-04-18 07:43:52 51°14.006 2°55.449 -999 252 10 101350 77
2006-04-18 07:43:57 51°14.006 2°55.449 -999 289 10 101350 77
2006-04-18 07:44:02 51°14.006 2°55.449 -999 306 10 101350 77
2006-04-18 07:44:08 51°14.006 2°55.449 -999 310 10 101350 77
2006-04-18 07:44:13 51°14.006 2°55.449 -999 271 10 101350 77
2006-04-18 07:44:18 51°14.005 2°55.449 -999 225 10 101350 77
2006-04-18 07:44:23 51°14.005 2°55.448 -999 242 10 101350 77
2006-04-18 07:44:27 51°14.005 2°55.448 -999 256 10 101350 77
2006-04-18 07:44:33 51°14.005 2°55.448 -999 252 10 101350 77
2006-04-18 07:44:38 51°14.005 2°55.447 -999 225 10 101350 77
2006-04-18 07:44:42 51°14.005 2°55.448 -999 249 10 101350 77
2006-04-18 07:44:47 51°14.005 2°55.448 -999 228 10 101350 77
2006-04-18 07:44:53 51°14.005 2°55.448 -999 230 10 101350 77
2006-04-18 07:44:58 51°14.005 2°55.448 -999 235 10 101350 77
2006-04-18 07:45:03 51°14.005 2°55.448 -999 185 10 101350 77
2006-04-18 07:45:08 51°14.005 2°55.449 -999 265 10 101350 77
2006-04-18 07:45:12 51°14.005 2°55.449 -999 272 10 101350 77
2006-04-18 07:45:17 51°14.005 2°55.449 -999 281 10 101350 77
2006-04-18 07:45:22 51°14.005 2°55.449 -999 287 10 101350 77
2006-04-18 07:45:27 51°14.005 2°55.449 -999 287 10 101350 77
2006-04-18 07:45:33 51°14.005 2°55.449 -999 295 10 101350 77
2006-04-18 07:45:37 51°14.005 2°55.449 -999 252 10 101350 77
2006-04-18 07:45:43 51°14.006 2°55.449 -999 263 10 101350 77
2006-04-18 07:45:48 51°14.006 2°55.449 -999 260 10 101350 77
2006-04-18 07:45:53 51°14.006 2°55.45 -999 280 10 101350 77
2006-04-18 07:45:58 51°14.006 2°55.45 -999 248 10 101350 77
2006-04-18 07:46:02 51°14.006 2°55.45 -999 200 10 101350 77
2006-04-18 07:46:07 51°14.006 2°55.451 -999 159 10 101350 77
2006-04-18 07:46:13 51°14.006 2°55.45 -999 160 10 101350 77
2006-04-18 07:46:18 51°14.006 2°55.45 -999 167 10 101350 77
2006-04-18 07:46:23 51°14.006 2°55.45 -999 296 10 101350 77
2006-04-18 07:46:27 51°14.005 2°55.45 -999 300 10 101350 77
2006-04-18 07:46:33 51°14.005 2°55.45 -999 301 10 101350 77
2006-04-18 07:46:38 51°14.005 2°55.449 -999 278 10 101350 77
2006-04-18 07:46:43 51°14.005 2°55.449 -999 268 10 101360 77
2006-04-18 07:46:47 51°14.005 2°55.449 -999 291 10 101360 77
2006-04-18 07:46:53 51°14.005 2°55.45 -999 291 10 101350 77
2006-04-18 07:46:58 51°14.005 2°55.45 -999 294 10 101350 77
2006-04-18 07:47:03 51°14.005 2°55.45 -999 267 10.1 101360 77
2006-04-18 07:47:07 51°14.005 2°55.45 -999 211 10.1 101360 77
2006-04-18 07:47:12 51°14.005 2°55.45 -999 239 10.1 101350 77
2006-04-18 07:47:18 51°14.006 2°55.45 -999 266 10.1 101350 77
2006-04-18 07:47:23 51°14.006 2°55.45 -999 272 10 101350 77
2006-04-18 07:47:28 51°14.006 2°55.45 -999 275 10 101350 77
2006-04-18 07:47:32 51°14.006 2°55.45 -999 262 10.1 101350 77
2006-04-18 07:47:38 51°14.006 2°55.45 -999 283 10.1 101350 77
2006-04-18 07:47:43 51°14.005 2°55.45 -999 266 10.1 101360 77
2006-04-18 07:47:47 51°14.005 2°55.45 -999 271 10.1 101360 77
2006-04-18 07:47:53 51°14.005 2°55.45 -999 241 10.1 101350 77
2006-04-18 07:47:57 51°14.005 2°55.45 -999 273 10.1 101350 77
2006-04-18 07:48:03 51°14.005 2°55.449 -999 290 10.1 101350 77
2006-04-18 07:48:08 51°14.005 2°55.449 -999 289 10.1 101350 77
2006-04-18 07:48:12 51°14.005 2°55.449 -999 269 10.1 101350 77
2006-04-18 07:48:17 51°14.005 2°55.449 -999 308 10.1 101350 77
2006-04-18 07:48:22 51°14.005 2°55.45 -999 251 10.1 101350 77
2006-04-18 07:48:28 51°14.005 2°55.45 -999 303 10.1 101350 77
2006-04-18 07:48:33 51°14.005 2°55.45 -999 299 10.1 101350 77
2006-04-18 07:48:38 51°14.005 2°55.449 -999 255 10.1 101350 77
2006-04-18 07:48:43 51°14.005 2°55.45 -999 199 10.1 101350 77
2006-04-18 07:48:48 51°14.005 2°55.45 -999 285 10.1 101350 77
2006-04-18 07:48:53 51°14.005 2°55.45 -999 241 10.1 101350 77
2006-04-18 07:48:58 51°14.006 2°55.451 -999 268 10.1 101350 77
2006-04-18 07:49:03 51°14.006 2°55.451 -999 292 10.1 101350 77
2006-04-18 07:49:07 51°14.006 2°55.451 -999 262 10.1 101350 77
2006-04-18 07:49:13 51°14.006 2°55.45 -999 253 10.2 101350 77
2006-04-18 07:49:18 51°14.006 2°55.451 -999 220 10.2 101350 77
2006-04-18 07:49:23 51°14.006 2°55.45 -999 236 10.2 101350 77
2006-04-18 07:49:27 51°14.006 2°55.451 -999 280 10.2 101350 77
2006-04-18 07:49:33 51°14.006 2°55.45 -999 235 10.2 101350 77
2006-04-18 07:49:38 51°14.005 2°55.45 -999 204 10.2 101350 76
2006-04-18 07:49:43 51°14.005 2°55.45 -999 242 10.2 101350 76
2006-04-18 07:49:47 51°14.005 2°55.45 -999 253 10.2 101350 76
2006-04-18 07:49:53 51°14.005 2°55.45 -999 288 10.2 101350 76
2006-04-18 07:49:57 51°14.005 2°55.45 -999 298 10.2 101350 76
2006-04-18 07:50:03 51°14.005 2°55.45 -999 240 10.2 101350 76
2006-04-18 07:50:08 51°14.005 2°55.45 -999 177 10.2 101350 76
2006-04-18 07:50:13 51°14.005 2°55.45 -999 179 10.2 101350 76
2006-04-18 07:50:18 51°14.005 2°55.45 -999 255 10.2 101350 76
2006-04-18 07:50:23 51°14.005 2°55.451 -999 238 10.2 101350 76
2006-04-18 07:50:27 51°14.006 2°55.451 -999 258 10.2 101350 76
2006-04-18 07:50:32 51°14.006 2°55.451 -999 279 10.2 101350 76
2006-04-18 07:50:38 51°14.006 2°55.451 -999 279 10.2 101350 76
2006-04-18 07:50:43 51°14.006 2°55.451 -999 244 10.2 101360 76
2006-04-18 07:50:48 51°14.005 2°55.45 -999 270 10.2 101360 76
2006-04-18 07:50:53 51°14.005 2°55.45 -999 259 10.2 101360 76
2006-04-18 07:50:58 51°14.005 2°55.45 -999 281 10.2 101360 76
2006-04-18 07:51:03 51°14.005 2°55.449 -999 228 10.2 101350 76
2006-04-18 07:51:07 51°14.004 2°55.449 -999 272 10.2 101350 76
2006-04-18 07:51:13 51°14.004 2°55.449 -999 276 10.2 101350 76
2006-04-18 07:51:18 51°14.004 2°55.449 -999 135 10.2 101350 76
2006-04-18 07:51:22 51°14.004 2°55.448 -999 231 10.2 101350 76
2006-04-18 07:51:27 51°14.004 2°55.448 -999 308 10.2 101350 76
2006-04-18 07:51:32 51°14.004 2°55.448 -999 245 10.3 101350 76
2006-04-18 07:51:38 51°14.004 2°55.448 -999 262 10.3 101350 76
2006-04-18 07:51:42 51°14.004 2°55.448 -999 246 10.2 101350 76
2006-04-18 07:51:47 51°14.004 2°55.448 -999 296 10.2 101350 76
2006-04-18 07:51:52 51°14.005 2°55.45 -999 249 10.2 101350 76
2006-04-18 07:51:57 51°14.006 2°55.451 -999 249 10.2 101350 76
2006-04-18 07:52:03 51°14.007 2°55.452 -999 254 10.2 101350 76
2006-04-18 07:52:07 51°14.007 2°55.452 -999 247 10.2 101350 76
2006-04-18 07:52:12 51°14.007 2°55.452 -999 271 10.2 101350 76
2006-04-18 07:52:17 51°14.007 2°55.452 -999 257 10.2 101350 76
2006-04-18 07:52:22 51°14.007 2°55.451 -999 227 10.2 101350 76
2006-04-18 07:52:27 51°14.007 2°55.451 -999 197 10.2 101350 76
2006-04-18 07:52:32 51°14.007 2°55.451 -999 208 10.2 101350 76
2006-04-18 07:52:37 51°14.007 2°55.452 -999 305 10.2 101350 76
2006-04-18 07:52:43 51°14.007 2°55.452 -999 358 10.2 101350 76
2006-04-18 07:52:48 51°14.007 2°55.452 -999 121 10.2 101350 76
2006-04-18 07:52:52 51°14.007 2°55.452 -999 166 10.2 101350 76
2006-04-18 07:52:57 51°14.007 2°55.452 -999 209 10.2 101350 76
2006-04-18 07:53:02 51°14.007 2°55.452 -999 242 10.2 101350 76
2006-04-18 07:53:08 51°14.007 2°55.451 -999 303 10.2 101350 76
2006-04-18 07:53:12 51°14.006 2°55.451 -999 262 10.3 101350 76
2006-04-18 07:53:17 51°14.006 2°55.45 -999 236 10.3 101350 76
2006-04-18 07:53:22 51°14.006 2°55.45 -999 232 10.3 101350 76
2006-04-18 07:53:27 51°14.006 2°55.45 -999 314 10.3 101350 76
2006-04-18 07:53:32 51°14.006 2°55.45 -999 233 10.2 101350 76
2006-04-18 07:53:37 51°14.006 2°55.45 -999 204 10.2 101350 76
2006-04-18 07:53:42 51°14.006 2°55.449 -999 262 10.2 101350 75
2006-04-18 07:53:47 51°14.006 2°55.45 -999 246 10.2 101350 75
2006-04-18 07:53:52 51°14.006 2°55.45 -999 216 10.2 101350 75
2006-04-18 07:53:58 51°14.006 2°55.45 -999 275 10.2 101350 75
2006-04-18 07:54:03 51°14.006 2°55.45 -999 221 10.2 101360 75
2006-04-18 07:54:07 51°14.006 2°55.45 -999 267 10.2 101360 75
2006-04-18 07:54:12 51°14.006 2°55.449 -999 258 10.2 101350 75
2006-04-18 07:54:18 51°14.006 2°55.449 -999 280 10.2 101350 75
2006-04-18 07:54:23 51°14.006 2°55.449 -999 297 10.2 101360 75
2006-04-18 07:54:27 51°14.006 2°55.449 -999 296 10.2 101360 75
2006-04-18 07:54:32 51°14.006 2°55.449 -999 251 10.2 101350 76
2006-04-18 07:54:37 51°14.006 2°55.449 -999 263 10.2 101350 76
2006-04-18 07:54:42 51°14.006 2°55.449 -999 240 10.2 101350 76
2006-04-18 07:54:47 51°14.006 2°55.449 -999 280 10.2 101350 76
2006-04-18 07:54:52 51°14.005 2°55.448 -999 252 10.2 101360 76
2006-04-18 07:54:57 51°14.005 2°55.448 -999 278 10.2 101360 76
2006-04-18 07:55:02 51°14.005 2°55.448 -999 271 10.2 101350 76
2006-04-18 07:55:07 51°14.006 2°55.449 -999 300 10.2 101350 76
2006-04-18 07:55:12 51°14.006 2°55.449 -999 272 10.2 101360 76
2006-04-18 07:55:17 51°14.006 2°55.449 -999 286 10.2 101360 76
2006-04-18 07:55:22 51°14.006 2°55.449 -999 292 10.2 101360 76
2006-04-18 07:55:27 51°14.006 2°55.449 -999 286 10.2 101360 76
2006-04-18 07:55:32 51°14.006 2°55.45 -999 293 10.2 101350 76
2006-04-18 07:55:37 51°14.006 2°55.45 -999 291 10.2 101350 76
2006-04-18 07:55:42 51°14.006 2°55.449 -999 232 10.2 101350 76
2006-04-18 07:55:47 51°14.005 2°55.449 -999 176 10.2 101350 76
2006-04-18 07:55:52 51°14.005 2°55.449 -999 287 10.2 101360 76
2006-04-18 07:55:57 51°14.006 2°55.449 -999 274 10.2 101360 76
2006-04-18 07:56:02 51°14.006 2°55.449 -999 282 10.2 101350 76
2006-04-18 07:56:07 51°14.006 2°55.45 -999 254 10.2 101350 76
2006-04-18 07:56:12 51°14.006 2°55.45 -999 303 10.2 101350 76
2006-04-18 07:56:16 51°14.007 2°55.45 -999 296 10.2 101350 76
2006-04-18 07:56:22 51°14.007 2°55.451 -999 256 10.2 101350 76
2006-04-18 07:56:27 51°14.007 2°55.45 -999 293 10.2 101350 76
2006-04-18 07:56:32 51°14.007 2°55.45 -999 232 10.2 101350 76
2006-04-18 07:56:37 51°14.007 2°55.45 -999 183 10.2 101360 76
2006-04-18 07:56:42 51°14.006 2°55.45 -999 229 10.3 101350 76
2006-04-18 07:56:47 51°14.006 2°55.449 -999 264 10.3 101350 76
2006-04-18 07:56:52 51°14.006 2°55.45 -999 303 10.3 101350 76
2006-04-18 07:56:57 51°14.006 2°55.45 -999 258 10.3 101350 76
2006-04-18 07:57:02 51°14.006 2°55.449 -999 208 10.3 101350 76
2006-04-18 07:57:07 51°14.006 2°55.449 -999 229 10.3 101350 76
2006-04-18 07:57:12 51°14.006 2°55.449 -999 206 10.3 101350 76
2006-04-18 07:57:17 51°14.006 2°55.449 -999 275 10.3 101360 76
2006-04-18 07:57:22 51°14.006 2°55.449 -999 284 10.3 101360 76
2006-04-18 07:57:27 51°14.006 2°55.449 -999 265 10.3 101360 76
2006-04-18 07:57:32 51°14.006 2°55.449 -999 244 10.3 101360 76
2006-04-18 07:57:37 51°14.006 2°55.449 -999 280 10.3 101350 76
2006-04-18 07:57:42 51°14.006 2°55.45 -999 267 10.3 101350 76
2006-04-18 07:57:47 51°14.006 2°55.45 -999 249 10.3 101350 76
2006-04-18 07:57:51 51°14.006 2°55.45 -999 271 10.3 101350 76
2006-04-18 07:57:57 51°14.006 2°55.449 -999 291 10.3 101360 76
2006-04-18 07:58:02 51°14.006 2°55.449 -999 250 10.3 101360 76
2006-04-18 07:58:07 51°14.005 2°55.449 -999 251 10.3 101350 76
2006-04-18 07:58:12 51°14.006 2°55.449 -999 285 10.3 101350 76
2006-04-18 07:58:17 51°14.006 2°55.449 -999 276 10.3 101350 76
2006-04-18 07:58:22 51°14.006 2°55.449 -999 282 10.3 101350 76
2006-04-18 07:58:27 51°14.006 2°55.45 -999 259 10.3 101360 76
2006-04-18 07:58:32 51°14.006 2°55.45 -999 238 10.3 101350 75
2006-04-18 07:58:37 51°14.006 2°55.45 -999 260 10.3 101350 75
2006-04-18 07:58:42 51°14.006 2°55.449 -999 203 10.3 101350 75
2006-04-18 07:58:47 51°14.006 2°55.449 -999 260 10.3 101350 75
2006-04-18 07:58:52 51°14.006 2°55.45 -999 259 10.3 101350 75
2006-04-18 07:58:57 51°14.006 2°55.45 -999 280 10.2 101350 75
2006-04-18 07:59:02 51°14.006 2°55.45 -999 279 10.2 101350 75
2006-04-18 07:59:07 51°14.006 2°55.45 -999 275 10.2 101350 75
2006-04-18 07:59:12 51°14.006 2°55.45 -999 278 10.2 101350 75
2006-04-18 07:59:17 51°14.006 2°55.45 -999 258 10.2 101360 76
2006-04-18 07:59:22 51°14.006 2°55.45 -999 283 10.2 101360 76
2006-04-18 07:59:27 51°14.006 2°55.45 -999 279 10.2 101360 75
2006-04-18 07:59:32 51°14.006 2°55.449 -999 270 10.2 101360 75
2006-04-18 07:59:37 51°14.006 2°55.449 -999 255 10.1 101360 75